Year,Month,Day,Hour,Minute,Value (Times are PST for temperature in C)
2021,08,11,00,00,19.00
2021,08,11,00,01,19.00
2021,08,11,00,02,19.00
2021,08,11,00,03,18.90
2021,08,11,00,04,18.90
2021,08,11,00,05,18.90
2021,08,11,00,06,18.90
2021,08,11,00,07,18.90
2021,08,11,00,08,18.90
2021,08,11,00,09,18.90
2021,08,11,00,10,18.80
2021,08,11,00,11,18.80
2021,08,11,00,12,18.80
2021,08,11,00,13,18.80
2021,08,11,00,14,18.80
2021,08,11,00,15,18.80
2021,08,11,00,16,18.80
2021,08,11,00,17,18.90
2021,08,11,00,18,18.90
2021,08,11,00,19,18.90
2021,08,11,00,20,18.90
2021,08,11,00,21,18.90
2021,08,11,00,22,18.90
2021,08,11,00,23,18.90
2021,08,11,00,24,18.90
2021,08,11,00,25,18.90
2021,08,11,00,26,18.80
2021,08,11,00,27,18.80
2021,08,11,00,28,18.80
2021,08,11,00,29,18.80
2021,08,11,00,30,18.80
2021,08,11,00,31,18.80
2021,08,11,00,32,18.70
2021,08,11,00,33,18.70
2021,08,11,00,34,18.70
2021,08,11,00,35,18.60
2021,08,11,00,36,18.60
2021,08,11,00,37,18.60
2021,08,11,00,38,18.60
2021,08,11,00,39,18.60
2021,08,11,00,40,18.50
2021,08,11,00,41,18.50
2021,08,11,00,42,18.50
2021,08,11,00,43,18.50
2021,08,11,00,44,18.40
2021,08,11,00,45,18.40
2021,08,11,00,46,18.40
2021,08,11,00,47,18.40
2021,08,11,00,48,18.40
2021,08,11,00,49,18.30
2021,08,11,00,50,18.30
2021,08,11,00,51,18.30
2021,08,11,00,52,18.30
2021,08,11,00,53,18.30
2021,08,11,00,54,18.30
2021,08,11,00,55,18.20
2021,08,11,00,56,18.20
2021,08,11,00,57,18.20
2021,08,11,00,58,18.20
2021,08,11,00,59,18.10
2021,08,11,01,00,18.10
2021,08,11,01,01,18.10
2021,08,11,01,02,18.10
2021,08,11,01,03,18.10
2021,08,11,01,04,18.10
2021,08,11,01,05,18.00
2021,08,11,01,06,18.00
2021,08,11,01,07,18.00
2021,08,11,01,08,18.00
2021,08,11,01,09,18.00
2021,08,11,01,10,18.00
2021,08,11,01,11,18.00
2021,08,11,01,12,17.90
2021,08,11,01,13,17.90
2021,08,11,01,14,17.90
2021,08,11,01,15,17.90
2021,08,11,01,16,17.90
2021,08,11,01,17,17.90
2021,08,11,01,18,17.90
2021,08,11,01,19,17.90
2021,08,11,01,20,17.90
2021,08,11,01,21,17.90
2021,08,11,01,22,17.90
2021,08,11,01,23,17.90
2021,08,11,01,24,17.90
2021,08,11,01,25,17.90
2021,08,11,01,26,17.90
2021,08,11,01,27,17.80
2021,08,11,01,28,17.80
2021,08,11,01,29,17.80
2021,08,11,01,30,17.80
2021,08,11,01,31,17.80
2021,08,11,01,32,17.80
2021,08,11,01,33,17.80
2021,08,11,01,34,17.80
2021,08,11,01,35,17.80
2021,08,11,01,36,17.80
2021,08,11,01,37,17.80
2021,08,11,01,38,17.80
2021,08,11,01,39,17.80
2021,08,11,01,40,17.80
2021,08,11,01,41,17.80
2021,08,11,01,42,17.80
2021,08,11,01,43,17.80
2021,08,11,01,44,17.80
2021,08,11,01,45,17.70
2021,08,11,01,46,17.70
2021,08,11,01,47,17.70
2021,08,11,01,48,17.70
2021,08,11,01,49,17.70
2021,08,11,01,50,17.70
2021,08,11,01,51,17.70
2021,08,11,01,52,17.70
2021,08,11,01,53,17.70
2021,08,11,01,54,17.70
2021,08,11,01,55,17.70
2021,08,11,01,56,17.70
2021,08,11,01,57,17.70
2021,08,11,01,58,17.70
2021,08,11,01,59,17.60
2021,08,11,02,00,17.60
2021,08,11,02,01,17.60
2021,08,11,02,02,17.60
2021,08,11,02,03,17.60
2021,08,11,02,04,17.60
2021,08,11,02,05,17.60
2021,08,11,02,06,17.60
2021,08,11,02,07,17.50
2021,08,11,02,08,17.50
2021,08,11,02,09,17.50
2021,08,11,02,10,17.40
2021,08,11,02,11,17.40
2021,08,11,02,12,17.40
2021,08,11,02,13,17.40
2021,08,11,02,14,17.40
2021,08,11,02,15,17.40
2021,08,11,02,16,17.40
2021,08,11,02,17,17.40
2021,08,11,02,18,17.40
2021,08,11,02,19,17.40
2021,08,11,02,20,17.40
2021,08,11,02,21,17.30
2021,08,11,02,22,17.30
2021,08,11,02,23,17.30
2021,08,11,02,24,17.30
2021,08,11,02,25,17.30
2021,08,11,02,26,17.30
2021,08,11,02,27,17.30
2021,08,11,02,28,17.30
2021,08,11,02,29,17.30
2021,08,11,02,30,17.30
2021,08,11,02,31,17.30
2021,08,11,02,32,17.30
2021,08,11,02,33,17.30
2021,08,11,02,34,17.30
2021,08,11,02,35,17.30
2021,08,11,02,36,17.30
2021,08,11,02,37,17.30
2021,08,11,02,38,17.30
2021,08,11,02,39,17.30
2021,08,11,02,40,17.30
2021,08,11,02,41,17.30
2021,08,11,02,42,17.30
2021,08,11,02,43,17.30
2021,08,11,02,44,17.20
2021,08,11,02,45,17.20
2021,08,11,02,46,17.20
2021,08,11,02,47,17.20
2021,08,11,02,48,17.20
2021,08,11,02,49,17.20
2021,08,11,02,50,17.10
2021,08,11,02,51,17.10
2021,08,11,02,52,17.10
2021,08,11,02,53,17.10
2021,08,11,02,54,17.10
2021,08,11,02,55,17.10
2021,08,11,02,56,17.10
2021,08,11,02,57,17.10
2021,08,11,02,58,17.10
2021,08,11,02,59,17.10
2021,08,11,03,00,17.10
2021,08,11,03,01,17.10
2021,08,11,03,02,17.00
2021,08,11,03,03,17.00
2021,08,11,03,04,17.00
2021,08,11,03,05,17.00
2021,08,11,03,06,17.00
2021,08,11,03,07,17.00
2021,08,11,03,08,17.00
2021,08,11,03,09,17.00
2021,08,11,03,10,17.00
2021,08,11,03,11,17.00
2021,08,11,03,12,17.00
2021,08,11,03,13,17.00
2021,08,11,03,14,17.00
2021,08,11,03,15,17.00
2021,08,11,03,16,17.00
2021,08,11,03,17,17.00
2021,08,11,03,18,17.00
2021,08,11,03,19,17.00
2021,08,11,03,20,17.00
2021,08,11,03,21,17.00
2021,08,11,03,22,16.90
2021,08,11,03,23,16.90
2021,08,11,03,24,16.90
2021,08,11,03,25,16.90
2021,08,11,03,26,16.90
2021,08,11,03,27,16.90
2021,08,11,03,28,16.80
2021,08,11,03,29,16.80
2021,08,11,03,30,16.80
2021,08,11,03,31,16.80
2021,08,11,03,32,16.80
2021,08,11,03,33,16.80
2021,08,11,03,34,16.80
2021,08,11,03,35,16.70
2021,08,11,03,36,16.70
2021,08,11,03,37,16.70
2021,08,11,03,38,16.70
2021,08,11,03,39,16.70
2021,08,11,03,40,16.70
2021,08,11,03,41,16.60
2021,08,11,03,42,16.60
2021,08,11,03,43,16.60
2021,08,11,03,44,16.60
2021,08,11,03,45,16.60
2021,08,11,03,46,16.60
2021,08,11,03,47,16.60
2021,08,11,03,48,16.60
2021,08,11,03,49,16.60
2021,08,11,03,50,16.60
2021,08,11,03,51,16.60
2021,08,11,03,52,16.60
2021,08,11,03,53,16.60
2021,08,11,03,54,16.60
2021,08,11,03,55,16.60
2021,08,11,03,56,16.60
2021,08,11,03,57,16.60
2021,08,11,03,58,16.60
2021,08,11,03,59,16.60
2021,08,11,04,00,16.60
2021,08,11,04,01,16.60
2021,08,11,04,02,16.60
2021,08,11,04,03,16.60
2021,08,11,04,04,16.60
2021,08,11,04,05,16.60
2021,08,11,04,06,16.60
2021,08,11,04,07,16.50
2021,08,11,04,08,16.50
2021,08,11,04,09,16.50
2021,08,11,04,10,16.50
2021,08,11,04,11,16.50
2021,08,11,04,12,16.50
2021,08,11,04,13,16.50
2021,08,11,04,14,16.50
2021,08,11,04,15,16.50
2021,08,11,04,16,16.50
2021,08,11,04,17,16.50
2021,08,11,04,18,16.50
2021,08,11,04,19,16.60
2021,08,11,04,20,16.60
2021,08,11,04,21,16.60
2021,08,11,04,22,16.60
2021,08,11,04,23,16.60
2021,08,11,04,24,16.60
2021,08,11,04,25,16.60
2021,08,11,04,26,16.60
2021,08,11,04,27,16.60
2021,08,11,04,28,16.60
2021,08,11,04,29,16.60
2021,08,11,04,30,16.60
2021,08,11,04,31,16.60
2021,08,11,04,32,16.50
2021,08,11,04,33,16.50
2021,08,11,04,34,16.50
2021,08,11,04,35,16.50
2021,08,11,04,36,16.50
2021,08,11,04,37,16.50
2021,08,11,04,38,16.50
2021,08,11,04,39,16.50
2021,08,11,04,40,16.40
2021,08,11,04,41,16.40
2021,08,11,04,42,16.40
2021,08,11,04,43,16.40
2021,08,11,04,44,16.40
2021,08,11,04,45,16.40
2021,08,11,04,46,16.30
2021,08,11,04,47,16.30
2021,08,11,04,48,16.30
2021,08,11,04,49,16.30
2021,08,11,04,50,16.30
2021,08,11,04,51,16.30
2021,08,11,04,52,16.30
2021,08,11,04,53,16.30
2021,08,11,04,54,16.30
2021,08,11,04,55,16.30
2021,08,11,04,56,16.30
2021,08,11,04,57,16.20
2021,08,11,04,58,16.20
2021,08,11,04,59,16.20
2021,08,11,05,00,16.20
2021,08,11,05,01,16.20
2021,08,11,05,02,16.20
2021,08,11,05,03,16.20
2021,08,11,05,04,16.10
2021,08,11,05,05,16.10
2021,08,11,05,06,16.10
2021,08,11,05,07,16.10
2021,08,11,05,08,16.10
2021,08,11,05,09,16.10
2021,08,11,05,10,16.00
2021,08,11,05,11,16.00
2021,08,11,05,12,16.00
2021,08,11,05,13,16.00
2021,08,11,05,14,15.90
2021,08,11,05,15,15.90
2021,08,11,05,16,15.90
2021,08,11,05,17,15.90
2021,08,11,05,18,15.90
2021,08,11,05,19,15.90
2021,08,11,05,20,15.90
2021,08,11,05,21,15.90
2021,08,11,05,22,15.90
2021,08,11,05,23,15.90
2021,08,11,05,24,15.90
2021,08,11,05,25,15.90
2021,08,11,05,26,15.90
2021,08,11,05,27,15.90
2021,08,11,05,28,15.90
2021,08,11,05,29,15.90
2021,08,11,05,30,15.90
2021,08,11,05,31,15.90
2021,08,11,05,32,15.90
2021,08,11,05,33,15.90
2021,08,11,05,34,15.90
2021,08,11,05,35,15.90
2021,08,11,05,36,15.90
2021,08,11,05,37,15.90
2021,08,11,05,38,15.90
2021,08,11,05,39,15.90
2021,08,11,05,40,15.90
2021,08,11,05,41,15.90
2021,08,11,05,42,15.80
2021,08,11,05,43,15.80
2021,08,11,05,44,15.80
2021,08,11,05,45,15.80
2021,08,11,05,46,15.80
2021,08,11,05,47,15.80
2021,08,11,05,48,15.80
2021,08,11,05,49,15.80
2021,08,11,05,50,15.80
2021,08,11,05,51,15.80
2021,08,11,05,52,15.80
2021,08,11,05,53,15.80
2021,08,11,05,54,15.80
2021,08,11,05,55,15.80
2021,08,11,05,56,15.80
2021,08,11,05,57,15.80
2021,08,11,05,58,15.80
2021,08,11,05,59,15.80
2021,08,11,06,00,15.80
2021,08,11,06,01,15.70
2021,08,11,06,02,15.70
2021,08,11,06,03,15.70
2021,08,11,06,04,15.70
2021,08,11,06,05,15.70
2021,08,11,06,06,15.70
2021,08,11,06,07,15.70
2021,08,11,06,08,15.70
2021,08,11,06,09,15.70
2021,08,11,06,10,15.70
2021,08,11,06,11,15.70
2021,08,11,06,12,15.70
2021,08,11,06,13,15.70
2021,08,11,06,14,15.70
2021,08,11,06,15,15.60
2021,08,11,06,16,15.60
2021,08,11,06,17,15.60
2021,08,11,06,18,15.60
2021,08,11,06,19,15.60
2021,08,11,06,20,15.60
2021,08,11,06,21,15.60
2021,08,11,06,22,15.60
2021,08,11,06,23,15.60
2021,08,11,06,24,15.60
2021,08,11,06,25,15.60
2021,08,11,06,26,15.60
2021,08,11,06,27,15.60
2021,08,11,06,28,15.60
2021,08,11,06,29,15.60
2021,08,11,06,30,15.60
2021,08,11,06,31,15.60
2021,08,11,06,32,15.60
2021,08,11,06,33,15.60
2021,08,11,06,34,15.60
2021,08,11,06,35,15.60
2021,08,11,06,36,15.60
2021,08,11,06,37,15.70
2021,08,11,06,38,15.70
2021,08,11,06,39,15.70
2021,08,11,06,40,15.70
2021,08,11,06,41,15.70
2021,08,11,06,42,15.80
2021,08,11,06,43,15.80
2021,08,11,06,44,15.80
2021,08,11,06,45,15.80
2021,08,11,06,46,15.80
2021,08,11,06,47,15.80
2021,08,11,06,48,15.80
2021,08,11,06,49,15.80
2021,08,11,06,50,15.80
2021,08,11,06,51,15.80
2021,08,11,06,52,15.80
2021,08,11,06,53,15.80
2021,08,11,06,54,15.80
2021,08,11,06,55,15.80
2021,08,11,06,56,15.90
2021,08,11,06,57,15.90
2021,08,11,06,58,15.90
2021,08,11,06,59,15.90
2021,08,11,07,00,15.90
2021,08,11,07,01,15.90
2021,08,11,07,02,15.90
2021,08,11,07,03,15.90
2021,08,11,07,04,15.90
2021,08,11,07,05,16.00
2021,08,11,07,06,16.00
2021,08,11,07,07,16.00
2021,08,11,07,08,16.00
2021,08,11,07,09,16.00
2021,08,11,07,10,16.00
2021,08,11,07,11,16.00
2021,08,11,07,12,16.10
2021,08,11,07,13,16.10
2021,08,11,07,14,16.10
2021,08,11,07,15,16.10
2021,08,11,07,16,16.10
2021,08,11,07,17,16.20
2021,08,11,07,18,16.20
2021,08,11,07,19,16.30
2021,08,11,07,20,16.30
2021,08,11,07,21,16.30
2021,08,11,07,22,16.30
2021,08,11,07,23,16.30
2021,08,11,07,24,16.30
2021,08,11,07,25,16.30
2021,08,11,07,26,16.40
2021,08,11,07,27,16.50
2021,08,11,07,28,16.50
2021,08,11,07,29,16.50
2021,08,11,07,30,16.60
2021,08,11,07,31,16.60
2021,08,11,07,32,16.70
2021,08,11,07,33,16.70
2021,08,11,07,34,16.80
2021,08,11,07,35,16.80
2021,08,11,07,36,16.90
2021,08,11,07,37,16.90
2021,08,11,07,38,17.00
2021,08,11,07,39,17.00
2021,08,11,07,40,17.10
2021,08,11,07,41,17.10
2021,08,11,07,42,17.10
2021,08,11,07,43,17.10
2021,08,11,07,44,17.10
2021,08,11,07,45,17.10
2021,08,11,07,46,17.20
2021,08,11,07,47,17.20
2021,08,11,07,48,17.20
2021,08,11,07,49,17.30
2021,08,11,07,50,17.30
2021,08,11,07,51,17.30
2021,08,11,07,52,17.40
2021,08,11,07,53,17.40
2021,08,11,07,54,17.50
2021,08,11,07,55,17.50
2021,08,11,07,56,17.60
2021,08,11,07,57,17.60
2021,08,11,07,58,17.70
2021,08,11,07,59,17.70
2021,08,11,08,00,17.80
2021,08,11,08,01,17.90
2021,08,11,08,02,17.90
2021,08,11,08,03,18.00
2021,08,11,08,04,18.00
2021,08,11,08,05,18.10
2021,08,11,08,06,18.20
2021,08,11,08,07,18.30
2021,08,11,08,08,18.50
2021,08,11,08,09,18.70
2021,08,11,08,10,18.90
2021,08,11,08,11,19.10
2021,08,11,08,12,19.30
2021,08,11,08,13,19.40
2021,08,11,08,14,19.50
2021,08,11,08,15,19.70
2021,08,11,08,16,19.80
2021,08,11,08,17,19.90
2021,08,11,08,18,20.10
2021,08,11,08,19,20.20
2021,08,11,08,20,20.30
2021,08,11,08,21,20.40
2021,08,11,08,22,20.40
2021,08,11,08,23,20.50
2021,08,11,08,24,20.50
2021,08,11,08,25,20.60
2021,08,11,08,26,20.60
2021,08,11,08,27,20.70
2021,08,11,08,28,20.80
2021,08,11,08,29,20.90
2021,08,11,08,30,21.10
2021,08,11,08,31,21.20
2021,08,11,08,32,21.40
2021,08,11,08,33,21.50
2021,08,11,08,34,21.60
2021,08,11,08,35,21.80
2021,08,11,08,36,21.90
2021,08,11,08,37,22.10
2021,08,11,08,38,22.20
2021,08,11,08,39,22.30
2021,08,11,08,40,22.40
2021,08,11,08,41,22.60
2021,08,11,08,42,22.70
2021,08,11,08,43,22.80
2021,08,11,08,44,22.90
2021,08,11,08,45,23.00
2021,08,11,08,46,23.20
2021,08,11,08,47,23.30
2021,08,11,08,48,23.30
2021,08,11,08,49,23.40
2021,08,11,08,50,23.50
2021,08,11,08,51,23.60
2021,08,11,08,52,23.80
2021,08,11,08,53,23.90
2021,08,11,08,54,24.00
2021,08,11,08,55,24.20
2021,08,11,08,56,24.30
2021,08,11,08,57,24.40
2021,08,11,08,58,24.40
2021,08,11,08,59,24.50
2021,08,11,09,00,24.50
2021,08,11,09,01,24.60
2021,08,11,09,02,24.60
2021,08,11,09,03,24.60
2021,08,11,09,04,24.70
2021,08,11,09,05,24.70
2021,08,11,09,06,24.80
2021,08,11,09,07,24.80
2021,08,11,09,08,24.70
2021,08,11,09,09,24.70
2021,08,11,09,10,24.70
2021,08,11,09,11,24.70
2021,08,11,09,12,24.70
2021,08,11,09,13,24.70
2021,08,11,09,14,24.70
2021,08,11,09,15,24.70
2021,08,11,09,16,24.70
2021,08,11,09,17,24.70
2021,08,11,09,18,24.80
2021,08,11,09,19,24.80
2021,08,11,09,20,24.80
2021,08,11,09,21,24.80
2021,08,11,09,22,24.80
2021,08,11,09,23,24.70
2021,08,11,09,24,24.70
2021,08,11,09,25,24.70
2021,08,11,09,26,24.70
2021,08,11,09,27,24.70
2021,08,11,09,28,24.70
2021,08,11,09,29,24.80
2021,08,11,09,30,24.80
2021,08,11,09,31,24.90
2021,08,11,09,32,24.90
2021,08,11,09,33,24.90
2021,08,11,09,34,25.00
2021,08,11,09,35,25.00
2021,08,11,09,36,25.00
2021,08,11,09,37,25.00
2021,08,11,09,38,25.00
2021,08,11,09,39,25.10
2021,08,11,09,40,25.10
2021,08,11,09,41,25.20
2021,08,11,09,42,25.20
2021,08,11,09,43,25.30
2021,08,11,09,44,25.30
2021,08,11,09,45,25.30
2021,08,11,09,46,25.30
2021,08,11,09,47,25.30
2021,08,11,09,48,25.20
2021,08,11,09,49,25.20
2021,08,11,09,50,25.20
2021,08,11,09,51,25.20
2021,08,11,09,52,25.20
2021,08,11,09,53,25.20
2021,08,11,09,54,25.30
2021,08,11,09,55,25.30
2021,08,11,09,56,25.30
2021,08,11,09,57,25.40
2021,08,11,09,58,25.40
2021,08,11,09,59,25.50
2021,08,11,10,00,25.50
2021,08,11,10,01,25.50
2021,08,11,10,02,25.50
2021,08,11,10,03,25.50
2021,08,11,10,04,25.50
2021,08,11,10,05,25.50
2021,08,11,10,06,25.50
2021,08,11,10,07,25.50
2021,08,11,10,08,25.60
2021,08,11,10,09,25.60
2021,08,11,10,10,25.60
2021,08,11,10,11,25.50
2021,08,11,10,12,25.40
2021,08,11,10,13,25.50
2021,08,11,10,14,25.50
2021,08,11,10,15,25.60
2021,08,11,10,16,25.70
2021,08,11,10,17,25.80
2021,08,11,10,18,25.80
2021,08,11,10,19,25.90
2021,08,11,10,20,26.00
2021,08,11,10,21,26.20
2021,08,11,10,22,26.20
2021,08,11,10,23,26.30
2021,08,11,10,24,26.30
2021,08,11,10,25,26.30
2021,08,11,10,26,26.30
2021,08,11,10,27,26.30
2021,08,11,10,28,26.40
2021,08,11,10,29,26.40
2021,08,11,10,30,26.30
2021,08,11,10,31,26.30
2021,08,11,10,32,26.30
2021,08,11,10,33,26.30
2021,08,11,10,34,26.40
2021,08,11,10,35,26.40
2021,08,11,10,36,26.50
2021,08,11,10,37,26.50
2021,08,11,10,38,26.60
2021,08,11,10,39,26.60
2021,08,11,10,40,26.70
2021,08,11,10,41,26.70
2021,08,11,10,42,26.70
2021,08,11,10,43,26.80
2021,08,11,10,44,26.90
2021,08,11,10,45,26.90
2021,08,11,10,46,26.90
2021,08,11,10,47,26.90
2021,08,11,10,48,27.00
2021,08,11,10,49,27.00
2021,08,11,10,50,27.00
2021,08,11,10,51,27.10
2021,08,11,10,52,27.10
2021,08,11,10,53,27.10
2021,08,11,10,54,27.20
2021,08,11,10,55,27.30
2021,08,11,10,56,27.50
2021,08,11,10,57,27.50
2021,08,11,10,58,27.50
2021,08,11,10,59,27.30
2021,08,11,11,00,27.30
2021,08,11,11,01,27.30
2021,08,11,11,02,27.30
2021,08,11,11,03,27.40
2021,08,11,11,04,27.40
2021,08,11,11,05,27.40
2021,08,11,11,06,27.50
2021,08,11,11,07,27.50
2021,08,11,11,08,27.50
2021,08,11,11,09,27.60
2021,08,11,11,10,27.60
2021,08,11,11,11,27.70
2021,08,11,11,12,27.70
2021,08,11,11,13,27.70
2021,08,11,11,14,27.70
2021,08,11,11,15,27.70
2021,08,11,11,16,27.70
2021,08,11,11,17,27.60
2021,08,11,11,18,27.60
2021,08,11,11,19,27.70
2021,08,11,11,20,27.80
2021,08,11,11,21,27.90
2021,08,11,11,22,28.10
2021,08,11,11,23,28.20
2021,08,11,11,24,28.20
2021,08,11,11,25,28.30
2021,08,11,11,26,28.30
2021,08,11,11,27,28.30
2021,08,11,11,28,28.30
2021,08,11,11,29,28.30
2021,08,11,11,30,28.40
2021,08,11,11,31,28.50
2021,08,11,11,32,28.60
2021,08,11,11,33,28.70
2021,08,11,11,34,28.60
2021,08,11,11,35,28.60
2021,08,11,11,36,28.50
2021,08,11,11,37,28.50
2021,08,11,11,38,28.50
2021,08,11,11,39,28.50
2021,08,11,11,40,28.60
2021,08,11,11,41,28.50
2021,08,11,11,42,28.60
2021,08,11,11,43,28.70
2021,08,11,11,44,28.80
2021,08,11,11,45,28.90
2021,08,11,11,46,29.00
2021,08,11,11,47,29.00
2021,08,11,11,48,29.00
2021,08,11,11,49,29.00
2021,08,11,11,50,28.90
2021,08,11,11,51,28.80
2021,08,11,11,52,28.80
2021,08,11,11,53,28.80
2021,08,11,11,54,28.80
2021,08,11,11,55,28.80
2021,08,11,11,56,28.90
2021,08,11,11,57,29.00
2021,08,11,11,58,29.00
2021,08,11,11,59,29.00
2021,08,11,12,00,29.00
2021,08,11,12,01,29.00
2021,08,11,12,02,29.00
2021,08,11,12,03,29.00
2021,08,11,12,04,28.90
2021,08,11,12,05,28.80
2021,08,11,12,06,28.70
2021,08,11,12,07,28.70
2021,08,11,12,08,28.80
2021,08,11,12,09,28.80
2021,08,11,12,10,28.90
2021,08,11,12,11,28.90
2021,08,11,12,12,29.00
2021,08,11,12,13,29.10
2021,08,11,12,14,29.10
2021,08,11,12,15,29.10
2021,08,11,12,16,29.20
2021,08,11,12,17,29.10
2021,08,11,12,18,29.10
2021,08,11,12,19,29.10
2021,08,11,12,20,29.00
2021,08,11,12,21,28.90
2021,08,11,12,22,29.00
2021,08,11,12,23,29.00
2021,08,11,12,24,29.10
2021,08,11,12,25,29.20
2021,08,11,12,26,29.20
2021,08,11,12,27,29.20
2021,08,11,12,28,29.20
2021,08,11,12,29,29.20
2021,08,11,12,30,29.30
2021,08,11,12,31,29.30
2021,08,11,12,32,29.20
2021,08,11,12,33,29.20
2021,08,11,12,34,29.10
2021,08,11,12,35,29.10
2021,08,11,12,36,29.20
2021,08,11,12,37,29.20
2021,08,11,12,38,29.20
2021,08,11,12,39,29.10
2021,08,11,12,40,29.00
2021,08,11,12,41,29.00
2021,08,11,12,42,29.00
2021,08,11,12,43,29.00
2021,08,11,12,44,29.00
2021,08,11,12,45,29.10
2021,08,11,12,46,29.20
2021,08,11,12,47,29.30
2021,08,11,12,48,29.40
2021,08,11,12,49,29.50
2021,08,11,12,50,29.60
2021,08,11,12,51,29.70
2021,08,11,12,52,29.70
2021,08,11,12,53,29.60
2021,08,11,12,54,29.50
2021,08,11,12,55,29.40
2021,08,11,12,56,29.30
2021,08,11,12,57,29.20
2021,08,11,12,58,29.20
2021,08,11,12,59,29.30
2021,08,11,13,00,29.30
2021,08,11,13,01,29.30
2021,08,11,13,02,29.30
2021,08,11,13,03,29.30
2021,08,11,13,04,29.20
2021,08,11,13,05,29.20
2021,08,11,13,06,29.30
2021,08,11,13,07,29.40
2021,08,11,13,08,29.40
2021,08,11,13,09,29.40
2021,08,11,13,10,29.50
2021,08,11,13,11,29.50
2021,08,11,13,12,29.50
2021,08,11,13,13,29.40
2021,08,11,13,14,29.40
2021,08,11,13,15,29.40
2021,08,11,13,16,29.40
2021,08,11,13,17,29.40
2021,08,11,13,18,29.40
2021,08,11,13,19,29.50
2021,08,11,13,20,29.50
2021,08,11,13,21,29.60
2021,08,11,13,22,29.70
2021,08,11,13,23,29.80
2021,08,11,13,24,29.90
2021,08,11,13,25,29.90
2021,08,11,13,26,30.00
2021,08,11,13,27,30.10
2021,08,11,13,28,30.10
2021,08,11,13,29,30.10
2021,08,11,13,30,30.30
2021,08,11,13,31,30.40
2021,08,11,13,32,30.50
2021,08,11,13,33,30.60
2021,08,11,13,34,30.60
2021,08,11,13,35,30.50
2021,08,11,13,36,30.40
2021,08,11,13,37,30.30
2021,08,11,13,38,30.20
2021,08,11,13,39,30.10
2021,08,11,13,40,30.20
2021,08,11,13,41,30.30
2021,08,11,13,42,30.30
2021,08,11,13,43,30.40
2021,08,11,13,44,30.50
2021,08,11,13,45,30.60
2021,08,11,13,46,30.70
2021,08,11,13,47,30.80
2021,08,11,13,48,30.80
2021,08,11,13,49,30.90
2021,08,11,13,50,31.00
2021,08,11,13,51,31.20
2021,08,11,13,52,31.40
2021,08,11,13,53,31.40
2021,08,11,13,54,31.40
2021,08,11,13,55,31.30
2021,08,11,13,56,31.20
2021,08,11,13,57,31.00
2021,08,11,13,58,30.70
2021,08,11,13,59,30.60
2021,08,11,14,00,30.50
2021,08,11,14,01,30.60
2021,08,11,14,02,30.70
2021,08,11,14,03,30.80
2021,08,11,14,04,30.90
2021,08,11,14,05,31.10
2021,08,11,14,06,31.10
2021,08,11,14,07,31.10
2021,08,11,14,08,31.30
2021,08,11,14,09,31.30
2021,08,11,14,10,31.30
2021,08,11,14,11,31.40
2021,08,11,14,12,31.50
2021,08,11,14,13,31.50
2021,08,11,14,14,31.60
2021,08,11,14,15,31.70
2021,08,11,14,16,31.80
2021,08,11,14,17,32.00
2021,08,11,14,18,32.10
2021,08,11,14,19,32.10
2021,08,11,14,20,32.00
2021,08,11,14,21,31.90
2021,08,11,14,22,31.80
2021,08,11,14,23,31.50
2021,08,11,14,24,31.30
2021,08,11,14,25,31.20
2021,08,11,14,26,31.10
2021,08,11,14,27,31.10
2021,08,11,14,28,31.10
2021,08,11,14,29,31.20
2021,08,11,14,30,31.20
2021,08,11,14,31,31.30
2021,08,11,14,32,31.30
2021,08,11,14,33,31.50
2021,08,11,14,34,31.60
2021,08,11,14,35,31.80
2021,08,11,14,36,31.70
2021,08,11,14,37,31.70
2021,08,11,14,38,31.70
2021,08,11,14,39,31.80
2021,08,11,14,40,31.80
2021,08,11,14,41,31.80
2021,08,11,14,42,31.90
2021,08,11,14,43,32.00
2021,08,11,14,44,32.10
2021,08,11,14,45,32.10
2021,08,11,14,46,32.10
2021,08,11,14,47,32.10
2021,08,11,14,48,32.10
2021,08,11,14,49,32.10
2021,08,11,14,50,32.10
2021,08,11,14,51,32.10
2021,08,11,14,52,32.30
2021,08,11,14,53,32.30
2021,08,11,14,54,32.40
2021,08,11,14,55,32.40
2021,08,11,14,56,32.40
2021,08,11,14,57,32.50
2021,08,11,14,58,32.40
2021,08,11,14,59,32.30
2021,08,11,15,00,32.30
2021,08,11,15,01,32.30
2021,08,11,15,02,32.20
2021,08,11,15,03,32.10
2021,08,11,15,04,32.00
2021,08,11,15,05,31.70
2021,08,11,15,06,31.60
2021,08,11,15,07,31.50
2021,08,11,15,08,31.30
2021,08,11,15,09,31.10
2021,08,11,15,10,31.20
2021,08,11,15,11,31.20
2021,08,11,15,12,31.20
2021,08,11,15,13,31.40
2021,08,11,15,14,31.40
2021,08,11,15,15,31.40
2021,08,11,15,16,31.40
2021,08,11,15,17,31.30
2021,08,11,15,18,31.30
2021,08,11,15,19,31.20
2021,08,11,15,20,31.20
2021,08,11,15,21,31.20
2021,08,11,15,22,31.20
2021,08,11,15,23,31.20
2021,08,11,15,24,31.30
2021,08,11,15,25,31.40
2021,08,11,15,26,31.50
2021,08,11,15,27,31.70
2021,08,11,15,28,31.70
2021,08,11,15,29,31.70
2021,08,11,15,30,31.80
2021,08,11,15,31,31.80
2021,08,11,15,32,31.70
2021,08,11,15,33,31.70
2021,08,11,15,34,31.60
2021,08,11,15,35,31.50
2021,08,11,15,36,31.50
2021,08,11,15,37,31.50
2021,08,11,15,38,31.50
2021,08,11,15,39,31.40
2021,08,11,15,40,31.40
2021,08,11,15,41,31.30
2021,08,11,15,42,31.40
2021,08,11,15,43,31.40
2021,08,11,15,44,31.40
2021,08,11,15,45,31.40
2021,08,11,15,46,31.50
2021,08,11,15,47,31.60
2021,08,11,15,48,31.60
2021,08,11,15,49,31.60
2021,08,11,15,50,31.50
2021,08,11,15,51,31.40
2021,08,11,15,52,31.40
2021,08,11,15,53,31.50
2021,08,11,15,54,31.50
2021,08,11,15,55,31.50
2021,08,11,15,56,31.50
2021,08,11,15,57,31.50
2021,08,11,15,58,31.60
2021,08,11,15,59,31.70
2021,08,11,16,00,31.80
2021,08,11,16,01,31.80
2021,08,11,16,02,31.90
2021,08,11,16,03,32.00
2021,08,11,16,04,32.10
2021,08,11,16,05,32.10
2021,08,11,16,06,32.10
2021,08,11,16,07,32.20
2021,08,11,16,08,32.20
2021,08,11,16,09,32.30
2021,08,11,16,10,32.30
2021,08,11,16,11,32.40
2021,08,11,16,12,32.50
2021,08,11,16,13,32.60
2021,08,11,16,14,32.60
2021,08,11,16,15,32.70
2021,08,11,16,16,32.70
2021,08,11,16,17,32.50
2021,08,11,16,18,32.40
2021,08,11,16,19,32.40
2021,08,11,16,20,32.20
2021,08,11,16,21,32.10
2021,08,11,16,22,32.00
2021,08,11,16,23,31.80
2021,08,11,16,24,31.70
2021,08,11,16,25,31.60
2021,08,11,16,26,31.50
2021,08,11,16,27,31.40
2021,08,11,16,28,31.30
2021,08,11,16,29,31.30
2021,08,11,16,30,31.30
2021,08,11,16,31,31.20
2021,08,11,16,32,31.30
2021,08,11,16,33,31.30
2021,08,11,16,34,31.30
2021,08,11,16,35,31.30
2021,08,11,16,36,31.40
2021,08,11,16,37,31.40
2021,08,11,16,38,31.50
2021,08,11,16,39,31.60
2021,08,11,16,40,31.70
2021,08,11,16,41,31.70
2021,08,11,16,42,31.80
2021,08,11,16,43,31.90
2021,08,11,16,44,32.10
2021,08,11,16,45,32.20
2021,08,11,16,46,32.20
2021,08,11,16,47,32.30
2021,08,11,16,48,32.30
2021,08,11,16,49,32.20
2021,08,11,16,50,32.20
2021,08,11,16,51,32.20
2021,08,11,16,52,32.20
2021,08,11,16,53,32.20
2021,08,11,16,54,32.20
2021,08,11,16,55,32.20
2021,08,11,16,56,32.30
2021,08,11,16,57,32.30
2021,08,11,16,58,32.30
2021,08,11,16,59,32.10
2021,08,11,17,00,32.00
2021,08,11,17,01,31.90
2021,08,11,17,02,31.80
2021,08,11,17,03,31.70
2021,08,11,17,04,31.80
2021,08,11,17,05,31.70
2021,08,11,17,06,31.60
2021,08,11,17,07,31.60
2021,08,11,17,08,31.60
2021,08,11,17,09,31.60
2021,08,11,17,10,31.60
2021,08,11,17,11,31.70
2021,08,11,17,12,31.70
2021,08,11,17,13,31.80
2021,08,11,17,14,31.80
2021,08,11,17,15,31.80
2021,08,11,17,16,31.80
2021,08,11,17,17,31.80
2021,08,11,17,18,31.80
2021,08,11,17,19,31.80